Location: Unspecified
(31.7463°N, 0.0000°E)
Time: 14:42:25
(UTC+00:00)

ARIANE 6 FM1 Upper Stage - Visible Passes

Search period start: 04 April 2026 00:00
Search period end: 14 April 2026 00:00
Orbit: 524 x 605 km, 62.0° (Epoch: 29 March)

Date Brightness Start Highest point End Pass type
(mag) Time Alt. Az. Time Alt. Az. Time Alt. Az.
6 Apr 6.0 04:23:33 10° NE 04:24:15 10° NE 04:24:56 10° NE visible
6 Apr 2.6 19:53:50 10° SSW 19:57:59 59° ESE 19:57:59 59° ESE visible
7 Apr 5.6 04:21:40 10° NNE 04:24:05 15° NE 04:26:28 10° E visible
7 Apr 2.6 19:53:23 10° SSW 19:57:35 86° WNW 20:01:43 10° NNE visible
8 Apr 5.1 04:20:41 10° N 04:23:50 23° NE 04:27:00 10° ESE visible
8 Apr 3.4 19:53:07 10° SW 19:57:14 53° WNW 20:01:15 10° NNE visible
9 Apr 4.3 04:19:55 10° NNW 04:23:33 34° NE 04:27:11 10° ESE visible
9 Apr 4.4 19:53:04 10° WSW 19:56:54 34° NW 20:00:40 10° NNE visible
10 Apr 3.3 04:19:20 10° NNW 04:23:13 54° ENE 04:27:07 10° SE visible
10 Apr 5.2 19:53:16 10° WSW 19:56:36 23° NW 19:59:55 10° N visible
11 Apr 2.4 04:18:53 10° NNW 04:22:51 90° E 04:26:49 10° SSE visible
11 Apr 5.7 19:53:46 10° W 19:56:21 16° NW 19:58:54 10° N visible
12 Apr 5.8 02:41:45 10° NNE 02:43:10 12° NE 02:44:35 10° ENE visible
12 Apr 2.5 04:18:33 10° NW 04:22:25 54° WSW 04:26:18 10° SSE visible
12 Apr 6.1 19:55:06 10° WNW 19:56:08 11° NW 19:57:11 10° NNW visible
13 Apr 5.4 02:44:19 15° ENE 02:44:19 15° ENE 02:45:35 10° E visible
13 Apr 3.1 04:20:44 27° W 04:21:58 33° WSW 04:25:33 10° S visible
